Regional Weather Roundup
Issued by NWS Binghamton, NY

Home | Current Version | Previous Version | Text Only | Print | Product List | Glossary On
Versions: 1 2 3 4 5 6 7 8 9 10 11 12 13 14 15 16 17 18 19 20 21 22 23 24 25 26 27
000
ASUS41 KBGM 300110
RWRBGM

REGIONAL WEATHER ROUNDUP
NATIONAL WEATHER SERVICE BINGHAMTON NY
900 PM EDT SAT APR 29 2017

Note: "fair" indicates few or no clouds below 12,000 feet with no
significant weather and/or obstructions to visibility.

* = Station(s) that does not report precipitation, such as rain,
snow, etc, also no thunder or fog.

NYZ009-015>018-022>025-036-037-044>046-055>057-062-300200
...Central New York...

CITY           SKY/WX    TMP DP  RH WIND       PRES   REMARKS
Binghamton     CLOUDY    53  43  68 W7        30.16R
Cortland       CLOUDY    52  41  66 W3        30.19R
Dansville      CLOUDY    54  43  66 N3        30.21R
Elmira         CLOUDY    58  47  66 N6        30.18R
Seneca Falls   CLOUDY    55  37  50 W6        30.21R
Ithaca         CLOUDY    53  39  59 NW8       30.20R
Hamilton       MOCLDY    50  37  62 N5        30.18R
Monticello     CLEAR     59  50  72 NW14      30.16R
Norwich        CLOUDY    55  37  50 N5        30.16S
Penn Yan       CLOUDY    54  37  52 SW6       30.21R
Rome           CLOUDY    49  36  61 NW9       30.19R
Sidney         CLOUDY    55  43  62 W3        30.15F
Syracuse       CLOUDY    51  35  54 NW6       30.18R
$$

PAZ038>040-043-044-047-048-072-300200
...Northeast Pennsylvania...

CITY           SKY/WX    TMP DP  RH WIND       PRES   REMARKS
Hazleton       CLOUDY    64  55  72 N12       30.18R
Scranton       CLOUDY    63  54  72 N7        30.15R
$$
&&
KEY
WCI = Wind Chill Index
VSB = Visibility
HX  = Heat Index
$$




USA.gov is the U.S. government's official web portal to all federal, state and local government web resources and services.